Year,Month,Day,Hour,Minute,Value (Times are PST for temperature in C)
2016,06,26,00,00,14.80
2016,06,26,00,01,14.80
2016,06,26,00,02,14.80
2016,06,26,00,03,14.80
2016,06,26,00,04,14.80
2016,06,26,00,05,14.80
2016,06,26,00,06,14.80
2016,06,26,00,07,14.80
2016,06,26,00,08,14.90
2016,06,26,00,09,14.90
2016,06,26,00,10,14.90
2016,06,26,00,11,14.90
2016,06,26,00,12,15.00
2016,06,26,00,13,15.00
2016,06,26,00,14,15.00
2016,06,26,00,15,15.10
2016,06,26,00,16,15.10
2016,06,26,00,17,15.10
2016,06,26,00,18,15.10
2016,06,26,00,19,15.10
2016,06,26,00,20,15.10
2016,06,26,00,21,15.10
2016,06,26,00,22,15.10
2016,06,26,00,23,15.10
2016,06,26,00,24,15.00
2016,06,26,00,25,15.00
2016,06,26,00,26,15.00
2016,06,26,00,27,15.00
2016,06,26,00,28,15.00
2016,06,26,00,29,14.90
2016,06,26,00,30,14.90
2016,06,26,00,31,14.90
2016,06,26,00,32,14.90
2016,06,26,00,33,14.90
2016,06,26,00,34,14.90
2016,06,26,00,35,14.80
2016,06,26,00,36,14.80
2016,06,26,00,37,14.80
2016,06,26,00,38,14.80
2016,06,26,00,39,14.80
2016,06,26,00,40,14.80
2016,06,26,00,41,14.70
2016,06,26,00,42,14.70
2016,06,26,00,43,14.70
2016,06,26,00,44,14.70
2016,06,26,00,45,14.70
2016,06,26,00,46,14.70
2016,06,26,00,47,14.60
2016,06,26,00,48,14.60
2016,06,26,00,49,14.60
2016,06,26,00,50,14.60
2016,06,26,00,51,14.60
2016,06,26,00,52,14.50
2016,06,26,00,53,14.50
2016,06,26,00,54,14.40
2016,06,26,00,55,14.40
2016,06,26,00,56,14.40
2016,06,26,00,57,14.40
2016,06,26,00,58,14.30
2016,06,26,00,59,14.30
2016,06,26,01,00,14.30
2016,06,26,01,01,14.30
2016,06,26,01,02,14.30
2016,06,26,01,03,14.30
2016,06,26,01,04,14.30
2016,06,26,01,05,14.20
2016,06,26,01,06,14.20
2016,06,26,01,07,14.20
2016,06,26,01,08,14.20
2016,06,26,01,09,14.20
2016,06,26,01,10,14.10
2016,06,26,01,11,14.10
2016,06,26,01,12,14.10
2016,06,26,01,13,14.10
2016,06,26,01,14,14.10
2016,06,26,01,15,14.10
2016,06,26,01,16,14.10
2016,06,26,01,17,14.00
2016,06,26,01,18,14.00
2016,06,26,01,19,13.90
2016,06,26,01,20,13.90
2016,06,26,01,21,13.90
2016,06,26,01,22,13.90
2016,06,26,01,23,13.80
2016,06,26,01,24,13.80
2016,06,26,01,25,13.80
2016,06,26,01,26,13.80
2016,06,26,01,27,13.70
2016,06,26,01,28,13.60
2016,06,26,01,29,13.50
2016,06,26,01,30,13.40
2016,06,26,01,31,13.40
2016,06,26,01,32,13.30
2016,06,26,01,33,13.30
2016,06,26,01,34,13.30
2016,06,26,01,35,13.30
2016,06,26,01,36,13.30
2016,06,26,01,37,13.30
2016,06,26,01,38,13.30
2016,06,26,01,39,13.20
2016,06,26,01,40,13.20
2016,06,26,01,41,13.20
2016,06,26,01,42,13.20
2016,06,26,01,43,13.20
2016,06,26,01,44,13.20
2016,06,26,01,45,13.20
2016,06,26,01,46,13.20
2016,06,26,01,47,13.30
2016,06,26,01,48,13.30
2016,06,26,01,49,13.30
2016,06,26,01,50,13.30
2016,06,26,01,51,13.30
2016,06,26,01,52,13.30
2016,06,26,01,53,13.30
2016,06,26,01,54,13.20
2016,06,26,01,55,13.20
2016,06,26,01,56,13.20
2016,06,26,01,57,13.20
2016,06,26,01,58,13.20
2016,06,26,01,59,13.20
2016,06,26,02,00,13.20
2016,06,26,02,01,13.20
2016,06,26,02,02,13.20
2016,06,26,02,03,13.20
2016,06,26,02,04,13.20
2016,06,26,02,05,13.20
2016,06,26,02,06,13.30
2016,06,26,02,07,13.30
2016,06,26,02,08,13.30
2016,06,26,02,09,13.30
2016,06,26,02,10,13.30
2016,06,26,02,11,13.40
2016,06,26,02,12,13.40
2016,06,26,02,13,13.40
2016,06,26,02,14,13.40
2016,06,26,02,15,13.50
2016,06,26,02,16,13.50
2016,06,26,02,17,13.50
2016,06,26,02,18,13.50
2016,06,26,02,19,13.40
2016,06,26,02,20,13.40
2016,06,26,02,21,13.40
2016,06,26,02,22,13.40
2016,06,26,02,23,13.40
2016,06,26,02,24,13.40
2016,06,26,02,25,13.40
2016,06,26,02,26,13.40
2016,06,26,02,27,13.30
2016,06,26,02,28,13.30
2016,06,26,02,29,13.30
2016,06,26,02,30,13.30
2016,06,26,02,31,13.30
2016,06,26,02,32,13.30
2016,06,26,02,33,13.20
2016,06,26,02,34,13.20
2016,06,26,02,35,13.20
2016,06,26,02,36,13.20
2016,06,26,02,37,13.20
2016,06,26,02,38,13.20
2016,06,26,02,39,13.20
2016,06,26,02,40,13.20
2016,06,26,02,41,13.20
2016,06,26,02,42,13.20
2016,06,26,02,43,13.20
2016,06,26,02,44,13.20
2016,06,26,02,45,13.20
2016,06,26,02,46,13.20
2016,06,26,02,47,13.20
2016,06,26,02,48,13.20
2016,06,26,02,49,13.20
2016,06,26,02,50,13.20
2016,06,26,02,51,13.20
2016,06,26,02,52,13.10
2016,06,26,02,53,13.10
2016,06,26,02,54,13.10
2016,06,26,02,55,13.10
2016,06,26,02,56,13.10
2016,06,26,02,57,13.10
2016,06,26,02,58,13.10
2016,06,26,02,59,13.10
2016,06,26,03,00,13.00
2016,06,26,03,01,13.00
2016,06,26,03,02,13.00
2016,06,26,03,03,13.00
2016,06,26,03,04,12.90
2016,06,26,03,05,12.90
2016,06,26,03,06,12.90
2016,06,26,03,07,12.90
2016,06,26,03,08,12.90
2016,06,26,03,09,12.90
2016,06,26,03,10,12.90
2016,06,26,03,11,12.90
2016,06,26,03,12,12.90
2016,06,26,03,13,12.90
2016,06,26,03,14,12.90
2016,06,26,03,15,12.90
2016,06,26,03,16,13.00
2016,06,26,03,17,13.00
2016,06,26,03,18,13.00
2016,06,26,03,19,13.00
2016,06,26,03,20,13.10
2016,06,26,03,21,13.10
2016,06,26,03,22,13.10
2016,06,26,03,23,13.10
2016,06,26,03,24,13.10
2016,06,26,03,25,13.10
2016,06,26,03,26,13.10
2016,06,26,03,27,13.10
2016,06,26,03,28,13.10
2016,06,26,03,29,13.10
2016,06,26,03,30,13.00
2016,06,26,03,31,13.00
2016,06,26,03,32,13.00
2016,06,26,03,33,13.00
2016,06,26,03,34,13.00
2016,06,26,03,35,13.00
2016,06,26,03,36,13.00
2016,06,26,03,37,13.10
2016,06,26,03,38,13.00
2016,06,26,03,39,13.00
2016,06,26,03,40,13.00
2016,06,26,03,41,13.00
2016,06,26,03,42,13.00
2016,06,26,03,43,13.00
2016,06,26,03,44,13.00
2016,06,26,03,45,12.90
2016,06,26,03,46,12.90
2016,06,26,03,47,12.90
2016,06,26,03,48,12.90
2016,06,26,03,49,12.90
2016,06,26,03,50,12.90
2016,06,26,03,51,12.90
2016,06,26,03,52,12.90
2016,06,26,03,53,12.90
2016,06,26,03,54,12.90
2016,06,26,03,55,12.90
2016,06,26,03,56,12.90
2016,06,26,03,57,12.90
2016,06,26,03,58,12.80
2016,06,26,03,59,12.80
2016,06,26,04,00,12.80
2016,06,26,04,01,12.80
2016,06,26,04,02,12.80
2016,06,26,04,03,12.80
2016,06,26,04,04,12.80
2016,06,26,04,05,12.80
2016,06,26,04,06,12.80
2016,06,26,04,07,12.80
2016,06,26,04,08,12.80
2016,06,26,04,09,12.80
2016,06,26,04,10,12.80
2016,06,26,04,11,12.80
2016,06,26,04,12,12.80
2016,06,26,04,13,12.80
2016,06,26,04,14,12.80
2016,06,26,04,15,12.80
2016,06,26,04,16,12.80
2016,06,26,04,17,12.80
2016,06,26,04,18,12.70
2016,06,26,04,19,12.70
2016,06,26,04,20,12.70
2016,06,26,04,21,12.70
2016,06,26,04,22,12.70
2016,06,26,04,23,12.70
2016,06,26,04,24,12.70
2016,06,26,04,25,12.70
2016,06,26,04,26,12.70
2016,06,26,04,27,12.70
2016,06,26,04,28,12.70
2016,06,26,04,29,12.70
2016,06,26,04,30,12.70
2016,06,26,04,31,12.70
2016,06,26,04,32,12.70
2016,06,26,04,33,12.60
2016,06,26,04,34,12.60
2016,06,26,04,35,12.60
2016,06,26,04,36,12.60
2016,06,26,04,37,12.60
2016,06,26,04,38,12.60
2016,06,26,04,39,12.60
2016,06,26,04,40,12.60
2016,06,26,04,41,12.60
2016,06,26,04,42,12.60
2016,06,26,04,43,12.60
2016,06,26,04,44,12.60
2016,06,26,04,45,12.60
2016,06,26,04,46,12.60
2016,06,26,04,47,12.60
2016,06,26,04,48,12.60
2016,06,26,04,49,12.60
2016,06,26,04,50,12.60
2016,06,26,04,51,12.50
2016,06,26,04,52,12.50
2016,06,26,04,53,12.50
2016,06,26,04,54,12.50
2016,06,26,04,55,12.50
2016,06,26,04,56,12.50
2016,06,26,04,57,12.40
2016,06,26,04,58,12.40
2016,06,26,04,59,12.40
2016,06,26,05,00,12.40
2016,06,26,05,01,12.40
2016,06,26,05,02,12.40
2016,06,26,05,03,12.40
2016,06,26,05,04,12.40
2016,06,26,05,05,12.40
2016,06,26,05,06,12.40
2016,06,26,05,07,12.40
2016,06,26,05,08,12.40
2016,06,26,05,09,12.40
2016,06,26,05,10,12.40
2016,06,26,05,11,12.30
2016,06,26,05,12,12.30
2016,06,26,05,13,12.30
2016,06,26,05,14,12.30
2016,06,26,05,15,12.30
2016,06,26,05,16,12.30
2016,06,26,05,17,12.30
2016,06,26,05,18,12.30
2016,06,26,05,19,12.30
2016,06,26,05,20,12.30
2016,06,26,05,21,12.30
2016,06,26,05,22,12.30
2016,06,26,05,23,12.30
2016,06,26,05,24,12.30
2016,06,26,05,25,12.30
2016,06,26,05,26,12.30
2016,06,26,05,27,12.30
2016,06,26,05,28,12.30
2016,06,26,05,29,12.30
2016,06,26,05,30,12.30
2016,06,26,05,31,12.30
2016,06,26,05,32,12.30
2016,06,26,05,33,12.30
2016,06,26,05,34,12.30
2016,06,26,05,35,12.30
2016,06,26,05,36,12.30
2016,06,26,05,37,12.30
2016,06,26,05,38,12.30
2016,06,26,05,39,12.30
2016,06,26,05,40,12.30
2016,06,26,05,41,12.30
2016,06,26,05,42,12.30
2016,06,26,05,43,12.30
2016,06,26,05,44,12.30
2016,06,26,05,45,12.30
2016,06,26,05,46,12.30
2016,06,26,05,47,12.30
2016,06,26,05,48,12.30
2016,06,26,05,49,12.40
2016,06,26,05,50,12.40
2016,06,26,05,51,12.40
2016,06,26,05,52,12.40
2016,06,26,05,53,12.40
2016,06,26,05,54,12.40
2016,06,26,05,55,12.40
2016,06,26,05,56,12.40
2016,06,26,05,57,12.40
2016,06,26,05,58,12.40
2016,06,26,05,59,12.40
2016,06,26,06,00,12.40
2016,06,26,06,01,12.40
2016,06,26,06,02,12.50
2016,06,26,06,03,12.50
2016,06,26,06,04,12.50
2016,06,26,06,05,12.60
2016,06,26,06,06,12.60
2016,06,26,06,07,12.60
2016,06,26,06,08,12.60
2016,06,26,06,09,12.60
2016,06,26,06,10,12.60
2016,06,26,06,11,12.70
2016,06,26,06,12,12.70
2016,06,26,06,13,12.70
2016,06,26,06,14,12.70
2016,06,26,06,15,12.70
2016,06,26,06,16,12.70
2016,06,26,06,17,12.70
2016,06,26,06,18,12.70
2016,06,26,06,19,12.80
2016,06,26,06,20,12.80
2016,06,26,06,21,12.80
2016,06,26,06,22,12.80
2016,06,26,06,23,12.80
2016,06,26,06,24,12.80
2016,06,26,06,25,12.80
2016,06,26,06,26,12.90
2016,06,26,06,27,12.90
2016,06,26,06,28,12.90
2016,06,26,06,29,12.90
2016,06,26,06,30,12.90
2016,06,26,06,31,13.00
2016,06,26,06,32,13.00
2016,06,26,06,33,13.00
2016,06,26,06,34,13.00
2016,06,26,06,35,13.10
2016,06,26,06,36,13.10
2016,06,26,06,37,13.10
2016,06,26,06,38,13.20
2016,06,26,06,39,13.20
2016,06,26,06,40,13.20
2016,06,26,06,41,13.30
2016,06,26,06,42,13.30
2016,06,26,06,43,13.30
2016,06,26,06,44,13.30
2016,06,26,06,45,13.40
2016,06,26,06,46,13.40
2016,06,26,06,47,13.40
2016,06,26,06,48,13.50
2016,06,26,06,49,13.50
2016,06,26,06,50,13.60
2016,06,26,06,51,13.60
2016,06,26,06,52,13.60
2016,06,26,06,53,13.60
2016,06,26,06,54,13.70
2016,06,26,06,55,13.70
2016,06,26,06,56,13.70
2016,06,26,06,57,13.70
2016,06,26,06,58,13.80
2016,06,26,06,59,13.80
2016,06,26,07,00,13.80
2016,06,26,07,01,13.90
2016,06,26,07,02,13.90
2016,06,26,07,03,13.90
2016,06,26,07,04,14.00
2016,06,26,07,05,14.00
2016,06,26,07,06,14.10
2016,06,26,07,07,14.10
2016,06,26,07,08,14.10
2016,06,26,07,09,14.10
2016,06,26,07,10,14.20
2016,06,26,07,11,14.20
2016,06,26,07,12,14.20
2016,06,26,07,13,14.20
2016,06,26,07,14,14.30
2016,06,26,07,15,14.30
2016,06,26,07,16,14.30
2016,06,26,07,17,14.40
2016,06,26,07,18,14.40
2016,06,26,07,19,14.40
2016,06,26,07,20,14.50
2016,06,26,07,21,14.50
2016,06,26,07,22,14.60
2016,06,26,07,23,14.60
2016,06,26,07,24,14.60
2016,06,26,07,25,14.60
2016,06,26,07,26,14.70
2016,06,26,07,27,14.70
2016,06,26,07,28,14.70
2016,06,26,07,29,14.80
2016,06,26,07,30,14.80
2016,06,26,07,31,14.80
2016,06,26,07,32,14.90
2016,06,26,07,33,14.90
2016,06,26,07,34,15.00
2016,06,26,07,35,15.10
2016,06,26,07,36,15.10
2016,06,26,07,37,15.10
2016,06,26,07,38,15.10
2016,06,26,07,39,15.10
2016,06,26,07,40,15.10
2016,06,26,07,41,15.10
2016,06,26,07,42,15.10
2016,06,26,07,43,15.10
2016,06,26,07,44,15.20
2016,06,26,07,45,15.20
2016,06,26,07,46,15.20
2016,06,26,07,47,15.30
2016,06,26,07,48,15.30
2016,06,26,07,49,15.40
2016,06,26,07,50,15.50
2016,06,26,07,51,15.60
2016,06,26,07,52,15.60
2016,06,26,07,53,15.70
2016,06,26,07,54,15.70
2016,06,26,07,55,15.70
2016,06,26,07,56,15.70
2016,06,26,07,57,15.70
2016,06,26,07,58,15.70
2016,06,26,07,59,15.70
2016,06,26,08,00,15.70
2016,06,26,08,01,15.80
2016,06,26,08,02,15.80
2016,06,26,08,03,15.80
2016,06,26,08,04,15.80
2016,06,26,08,05,15.80
2016,06,26,08,06,15.90
2016,06,26,08,07,15.90
2016,06,26,08,08,16.00
2016,06,26,08,09,16.00
2016,06,26,08,10,16.10
2016,06,26,08,11,16.10
2016,06,26,08,12,16.20
2016,06,26,08,13,16.20
2016,06,26,08,14,16.30
2016,06,26,08,15,16.30
2016,06,26,08,16,16.30
2016,06,26,08,17,16.30
2016,06,26,08,18,16.40
2016,06,26,08,19,16.40
2016,06,26,08,20,16.40
2016,06,26,08,21,16.40
2016,06,26,08,22,16.40
2016,06,26,08,23,16.40
2016,06,26,08,24,16.30
2016,06,26,08,25,16.30
2016,06,26,08,26,16.40
2016,06,26,08,27,16.40
2016,06,26,08,28,16.40
2016,06,26,08,29,16.50
2016,06,26,08,30,16.50
2016,06,26,08,31,16.50
2016,06,26,08,32,16.50
2016,06,26,08,33,16.60
2016,06,26,08,34,16.60
2016,06,26,08,35,16.60
2016,06,26,08,36,16.70
2016,06,26,08,37,16.70
2016,06,26,08,38,16.70
2016,06,26,08,39,16.80
2016,06,26,08,40,16.80
2016,06,26,08,41,16.80
2016,06,26,08,42,16.90
2016,06,26,08,43,16.90
2016,06,26,08,44,16.90
2016,06,26,08,45,17.00
2016,06,26,08,46,17.00
2016,06,26,08,47,17.00
2016,06,26,08,48,17.10
2016,06,26,08,49,17.10
2016,06,26,08,50,17.10
2016,06,26,08,51,17.10
2016,06,26,08,52,17.20
2016,06,26,08,53,17.20
2016,06,26,08,54,17.20
2016,06,26,08,55,17.20
2016,06,26,08,56,17.30
2016,06,26,08,57,17.20
2016,06,26,08,58,17.20
2016,06,26,08,59,17.20
2016,06,26,09,00,17.20
2016,06,26,09,01,17.20
2016,06,26,09,02,17.20
2016,06,26,09,03,17.30
2016,06,26,09,04,17.30
2016,06,26,09,05,17.40
2016,06,26,09,06,17.40
2016,06,26,09,07,17.30
2016,06,26,09,08,17.30
2016,06,26,09,09,17.20
2016,06,26,09,10,17.20
2016,06,26,09,11,17.20
2016,06,26,09,12,17.20
2016,06,26,09,13,17.30
2016,06,26,09,14,17.30
2016,06,26,09,15,17.30
2016,06,26,09,16,17.30
2016,06,26,09,17,17.20
2016,06,26,09,18,17.20
2016,06,26,09,19,17.10
2016,06,26,09,20,17.10
2016,06,26,09,21,17.00
2016,06,26,09,22,16.90
2016,06,26,09,23,16.90
2016,06,26,09,24,17.00
2016,06,26,09,25,17.00
2016,06,26,09,26,17.00
2016,06,26,09,27,17.00
2016,06,26,09,28,16.90
2016,06,26,09,29,16.90
2016,06,26,09,30,16.90
2016,06,26,09,31,16.90
2016,06,26,09,32,16.90
2016,06,26,09,33,16.90
2016,06,26,09,34,16.90
2016,06,26,09,35,16.90
2016,06,26,09,36,16.90
2016,06,26,09,37,16.90
2016,06,26,09,38,17.00
2016,06,26,09,39,17.10
2016,06,26,09,40,17.10
2016,06,26,09,41,17.10
2016,06,26,09,42,17.10
2016,06,26,09,43,17.10
2016,06,26,09,44,17.10
2016,06,26,09,45,17.20
2016,06,26,09,46,17.20
2016,06,26,09,47,17.30
2016,06,26,09,48,17.30
2016,06,26,09,49,17.40
2016,06,26,09,50,17.40
2016,06,26,09,51,17.40
2016,06,26,09,52,17.40
2016,06,26,09,53,17.40
2016,06,26,09,54,17.50
2016,06,26,09,55,17.50
2016,06,26,09,56,17.60
2016,06,26,09,57,17.70
2016,06,26,09,58,17.70
2016,06,26,09,59,17.70
2016,06,26,10,00,17.80
2016,06,26,10,01,17.90
2016,06,26,10,02,17.90
2016,06,26,10,03,17.80
2016,06,26,10,04,17.70
2016,06,26,10,05,17.70
2016,06,26,10,06,17.70
2016,06,26,10,07,17.70
2016,06,26,10,08,17.70
2016,06,26,10,09,17.70
2016,06,26,10,10,17.70
2016,06,26,10,11,17.80
2016,06,26,10,12,17.80
2016,06,26,10,13,17.90
2016,06,26,10,14,18.00
2016,06,26,10,15,18.10
2016,06,26,10,16,18.10
2016,06,26,10,17,18.10
2016,06,26,10,18,18.10
2016,06,26,10,19,18.10
2016,06,26,10,20,18.00
2016,06,26,10,21,18.10
2016,06,26,10,22,18.10
2016,06,26,10,23,18.10
2016,06,26,10,24,18.10
2016,06,26,10,25,18.10
2016,06,26,10,26,18.10
2016,06,26,10,27,18.10
2016,06,26,10,28,18.00
2016,06,26,10,29,18.00
2016,06,26,10,30,18.00
2016,06,26,10,31,18.10
2016,06,26,10,32,18.20
2016,06,26,10,33,18.20
2016,06,26,10,34,18.20
2016,06,26,10,35,18.20
2016,06,26,10,36,18.20
2016,06,26,10,37,18.20
2016,06,26,10,38,18.30
2016,06,26,10,39,18.20
2016,06,26,10,40,18.20
2016,06,26,10,41,18.30
2016,06,26,10,42,18.30
2016,06,26,10,43,18.30
2016,06,26,10,44,18.30
2016,06,26,10,45,18.40
2016,06,26,10,46,18.40
2016,06,26,10,47,18.40
2016,06,26,10,48,18.30
2016,06,26,10,49,18.30
2016,06,26,10,50,18.20
2016,06,26,10,51,18.20
2016,06,26,10,52,18.20
2016,06,26,10,53,18.20
2016,06,26,10,54,18.20
2016,06,26,10,55,18.30
2016,06,26,10,56,18.30
2016,06,26,10,57,18.40
2016,06,26,10,58,18.40
2016,06,26,10,59,18.50
2016,06,26,11,00,18.50
2016,06,26,11,01,18.60
2016,06,26,11,02,18.60
2016,06,26,11,03,18.70
2016,06,26,11,04,18.80
2016,06,26,11,05,18.90
2016,06,26,11,06,18.90
2016,06,26,11,07,19.00
2016,06,26,11,08,19.00
2016,06,26,11,09,19.00
2016,06,26,11,10,19.10
2016,06,26,11,11,19.10
2016,06,26,11,12,19.10
2016,06,26,11,13,19.10
2016,06,26,11,14,19.00
2016,06,26,11,15,19.00
2016,06,26,11,16,18.90
2016,06,26,11,17,19.00
2016,06,26,11,18,19.00
2016,06,26,11,19,19.10
2016,06,26,11,20,19.10
2016,06,26,11,21,19.20
2016,06,26,11,22,19.20
2016,06,26,11,23,19.20
2016,06,26,11,24,19.20
2016,06,26,11,25,19.20
2016,06,26,11,26,19.30
2016,06,26,11,27,19.30
2016,06,26,11,28,19.30
2016,06,26,11,29,19.30
2016,06,26,11,30,19.30
2016,06,26,11,31,19.40
2016,06,26,11,32,19.40
2016,06,26,11,33,19.50
2016,06,26,11,34,19.60
2016,06,26,11,35,19.70
2016,06,26,11,36,19.80
2016,06,26,11,37,19.90
2016,06,26,11,38,19.90
2016,06,26,11,39,19.90
2016,06,26,11,40,19.90
2016,06,26,11,41,19.80
2016,06,26,11,42,19.80
2016,06,26,11,43,19.80
2016,06,26,11,44,19.80
2016,06,26,11,45,19.80
2016,06,26,11,46,19.80
2016,06,26,11,47,19.80
2016,06,26,11,48,19.80
2016,06,26,11,49,19.90
2016,06,26,11,50,19.90
2016,06,26,11,51,20.00
2016,06,26,11,52,20.00
2016,06,26,11,53,20.00
2016,06,26,11,54,20.10
2016,06,26,11,55,20.10
2016,06,26,11,56,20.10
2016,06,26,11,57,20.10
2016,06,26,11,58,20.20
2016,06,26,11,59,20.20
2016,06,26,12,00,20.20
2016,06,26,12,01,20.20
2016,06,26,12,02,20.20
2016,06,26,12,03,20.20
2016,06,26,12,04,20.20
2016,06,26,12,05,20.20
2016,06,26,12,06,20.20
2016,06,26,12,07,20.20
2016,06,26,12,08,20.20
2016,06,26,12,09,20.20
2016,06,26,12,10,20.20
2016,06,26,12,11,20.10
2016,06,26,12,12,20.10
2016,06,26,12,13,20.00
2016,06,26,12,14,20.10
2016,06,26,12,15,20.10
2016,06,26,12,16,20.10
2016,06,26,12,17,20.10
2016,06,26,12,18,20.10
2016,06,26,12,19,20.10
2016,06,26,12,20,20.20
2016,06,26,12,21,20.30
2016,06,26,12,22,20.40
2016,06,26,12,23,20.50
2016,06,26,12,24,20.60
2016,06,26,12,25,20.60
2016,06,26,12,26,20.60
2016,06,26,12,27,20.70
2016,06,26,12,28,20.80
2016,06,26,12,29,20.80
2016,06,26,12,30,20.90
2016,06,26,12,31,20.90
2016,06,26,12,32,20.90
2016,06,26,12,33,21.00
2016,06,26,12,34,21.00
2016,06,26,12,35,21.00
2016,06,26,12,36,20.90
2016,06,26,12,37,20.90
2016,06,26,12,38,20.90
2016,06,26,12,39,21.00
2016,06,26,12,40,21.10
2016,06,26,12,41,21.20
2016,06,26,12,42,21.20
2016,06,26,12,43,21.20
2016,06,26,12,44,21.20
2016,06,26,12,45,21.20
2016,06,26,12,46,21.20
2016,06,26,12,47,21.30
2016,06,26,12,48,21.30
2016,06,26,12,49,21.40
2016,06,26,12,50,21.40
2016,06,26,12,51,21.40
2016,06,26,12,52,21.50
2016,06,26,12,53,21.60
2016,06,26,12,54,21.80
2016,06,26,12,55,21.90
2016,06,26,12,56,21.90
2016,06,26,12,57,21.90
2016,06,26,12,58,21.90
2016,06,26,12,59,21.90
2016,06,26,13,00,22.00
2016,06,26,13,01,22.10
2016,06,26,13,02,22.20
2016,06,26,13,03,22.40
2016,06,26,13,04,22.40
2016,06,26,13,05,22.30
2016,06,26,13,06,22.30
2016,06,26,13,07,22.20
2016,06,26,13,08,22.20
2016,06,26,13,09,22.20
2016,06,26,13,10,22.10
2016,06,26,13,11,22.20
2016,06,26,13,12,22.30
2016,06,26,13,13,22.30
2016,06,26,13,14,22.30
2016,06,26,13,15,22.30
2016,06,26,13,16,22.40
2016,06,26,13,17,22.50
2016,06,26,13,18,22.60
2016,06,26,13,19,22.60
2016,06,26,13,20,22.60
2016,06,26,13,21,22.50
2016,06,26,13,22,22.40
2016,06,26,13,23,22.40
2016,06,26,13,24,22.30
2016,06,26,13,25,22.20
2016,06,26,13,26,22.20
2016,06,26,13,27,22.20
2016,06,26,13,28,22.30
2016,06,26,13,29,22.30
2016,06,26,13,30,22.40
2016,06,26,13,31,22.50
2016,06,26,13,32,22.60
2016,06,26,13,33,22.80
2016,06,26,13,34,22.90
2016,06,26,13,35,23.00
2016,06,26,13,36,23.00
2016,06,26,13,37,23.00
2016,06,26,13,38,22.90
2016,06,26,13,39,22.90
2016,06,26,13,40,22.80
2016,06,26,13,41,22.70
2016,06,26,13,42,22.70
2016,06,26,13,43,22.80
2016,06,26,13,44,22.90
2016,06,26,13,45,23.00
2016,06,26,13,46,23.10
2016,06,26,13,47,23.20
2016,06,26,13,48,23.20
2016,06,26,13,49,23.20
2016,06,26,13,50,23.20
2016,06,26,13,51,23.20
2016,06,26,13,52,23.20
2016,06,26,13,53,23.20
2016,06,26,13,54,23.20
2016,06,26,13,55,23.20
2016,06,26,13,56,23.20
2016,06,26,13,57,23.20
2016,06,26,13,58,23.10
2016,06,26,13,59,23.10
2016,06,26,14,00,23.10
2016,06,26,14,01,23.10
2016,06,26,14,02,23.00
2016,06,26,14,03,23.00
2016,06,26,14,04,23.00
2016,06,26,14,05,23.00
2016,06,26,14,06,23.10
2016,06,26,14,07,23.10
2016,06,26,14,08,23.20
2016,06,26,14,09,23.10
2016,06,26,14,10,23.10
2016,06,26,14,11,23.10
2016,06,26,14,12,23.10
2016,06,26,14,13,23.00
2016,06,26,14,14,23.00
2016,06,26,14,15,22.90
2016,06,26,14,16,23.00
2016,06,26,14,17,23.00
2016,06,26,14,18,23.10
2016,06,26,14,19,23.10
2016,06,26,14,20,23.10
2016,06,26,14,21,23.10
2016,06,26,14,22,23.20
2016,06,26,14,23,23.30
2016,06,26,14,24,23.30
2016,06,26,14,25,23.30
2016,06,26,14,26,23.30
2016,06,26,14,27,23.30
2016,06,26,14,28,23.30
2016,06,26,14,29,23.30
2016,06,26,14,30,23.30
2016,06,26,14,31,23.30
2016,06,26,14,32,23.40
2016,06,26,14,33,23.40
2016,06,26,14,34,23.40
2016,06,26,14,35,23.50
2016,06,26,14,36,23.60
2016,06,26,14,37,23.60
2016,06,26,14,38,23.60
2016,06,26,14,39,23.70
2016,06,26,14,40,23.70
2016,06,26,14,41,23.70
2016,06,26,14,42,23.70
2016,06,26,14,43,23.80
2016,06,26,14,44,23.90
2016,06,26,14,45,24.00
2016,06,26,14,46,24.10
2016,06,26,14,47,24.30
2016,06,26,14,48,24.30
2016,06,26,14,49,24.20
2016,06,26,14,50,24.20
2016,06,26,14,51,24.10
2016,06,26,14,52,24.00
2016,06,26,14,53,24.00
2016,06,26,14,54,24.10
2016,06,26,14,55,24.10
2016,06,26,14,56,24.20
2016,06,26,14,57,24.30
2016,06,26,14,58,24.30
2016,06,26,14,59,24.30
2016,06,26,15,00,24.30
2016,06,26,15,01,24.20
2016,06,26,15,02,24.20
2016,06,26,15,03,24.20
2016,06,26,15,04,24.20
2016,06,26,15,05,24.20
2016,06,26,15,06,24.20
2016,06,26,15,07,24.20
2016,06,26,15,08,24.20
2016,06,26,15,09,24.10
2016,06,26,15,10,24.10
2016,06,26,15,11,24.00
2016,06,26,15,12,23.90
2016,06,26,15,13,23.90
2016,06,26,15,14,23.90
2016,06,26,15,15,24.00
2016,06,26,15,16,24.10
2016,06,26,15,17,24.10
2016,06,26,15,18,24.00
2016,06,26,15,19,24.00
2016,06,26,15,20,24.10
2016,06,26,15,21,24.20
2016,06,26,15,22,24.30
2016,06,26,15,23,24.30
2016,06,26,15,24,24.40
2016,06,26,15,25,24.40
2016,06,26,15,26,24.40
2016,06,26,15,27,24.40
2016,06,26,15,28,24.30
2016,06,26,15,29,24.30
2016,06,26,15,30,24.30
2016,06,26,15,31,24.30
2016,06,26,15,32,24.30
2016,06,26,15,33,24.30
2016,06,26,15,34,24.30
2016,06,26,15,35,24.30
2016,06,26,15,36,24.30
2016,06,26,15,37,24.40
2016,06,26,15,38,24.50
2016,06,26,15,39,24.60
2016,06,26,15,40,24.70
2016,06,26,15,41,24.80
2016,06,26,15,42,24.80
2016,06,26,15,43,24.80
2016,06,26,15,44,24.80
2016,06,26,15,45,24.80
2016,06,26,15,46,24.80
2016,06,26,15,47,24.80
2016,06,26,15,48,24.70
2016,06,26,15,49,24.70
2016,06,26,15,50,24.70
2016,06,26,15,51,24.70
2016,06,26,15,52,24.70
2016,06,26,15,53,24.70
2016,06,26,15,54,24.70
2016,06,26,15,55,24.70
2016,06,26,15,56,24.70
2016,06,26,15,57,24.80
2016,06,26,15,58,24.80
2016,06,26,15,59,24.80
2016,06,26,16,00,24.80
2016,06,26,16,01,24.80
2016,06,26,16,02,24.80
2016,06,26,16,03,24.80
2016,06,26,16,04,24.90
2016,06,26,16,05,24.90
2016,06,26,16,06,24.90
2016,06,26,16,07,24.90
2016,06,26,16,08,24.90
2016,06,26,16,09,25.00
2016,06,26,16,10,25.00
2016,06,26,16,11,25.10
2016,06,26,16,12,25.20
2016,06,26,16,13,25.20
2016,06,26,16,14,25.20
2016,06,26,16,15,25.20
2016,06,26,16,16,25.20
2016,06,26,16,17,25.10
2016,06,26,16,18,24.90
2016,06,26,16,19,24.80
2016,06,26,16,20,24.70
2016,06,26,16,21,24.50
2016,06,26,16,22,24.40
2016,06,26,16,23,24.30
2016,06,26,16,24,24.30
2016,06,26,16,25,24.20
2016,06,26,16,26,24.10
2016,06,26,16,27,24.00
2016,06,26,16,28,24.00
2016,06,26,16,29,24.00
2016,06,26,16,30,24.00
2016,06,26,16,31,24.10
2016,06,26,16,32,24.10
2016,06,26,16,33,24.10
2016,06,26,16,34,24.10
2016,06,26,16,35,24.20
2016,06,26,16,36,24.20
2016,06,26,16,37,24.20
2016,06,26,16,38,24.30
2016,06,26,16,39,24.30
2016,06,26,16,40,24.40
2016,06,26,16,41,24.40
2016,06,26,16,42,24.30
2016,06,26,16,43,24.20
2016,06,26,16,44,24.20
2016,06,26,16,45,24.10
2016,06,26,16,46,24.10
2016,06,26,16,47,24.00
2016,06,26,16,48,24.00
2016,06,26,16,49,24.00
2016,06,26,16,50,24.00
2016,06,26,16,51,24.10
2016,06,26,16,52,24.10
2016,06,26,16,53,24.10
2016,06,26,16,54,24.20
2016,06,26,16,55,24.30
2016,06,26,16,56,24.30
2016,06,26,16,57,24.40
2016,06,26,16,58,24.40
2016,06,26,16,59,24.50
2016,06,26,17,00,24.50
2016,06,26,17,01,24.60
2016,06,26,17,02,24.60
2016,06,26,17,03,24.60
2016,06,26,17,04,24.60
2016,06,26,17,05,24.60
2016,06,26,17,06,24.60
2016,06,26,17,07,24.50
2016,06,26,17,08,24.50
2016,06,26,17,09,24.40
2016,06,26,17,10,24.40
2016,06,26,17,11,24.40
2016,06,26,17,12,24.40
2016,06,26,17,13,24.50
2016,06,26,17,14,24.60
2016,06,26,17,15,24.60
2016,06,26,17,16,24.60
2016,06,26,17,17,24.60
2016,06,26,17,18,24.60
2016,06,26,17,19,24.60